Location: Archemont
(49.1579°N, 1.7598°E)
Time: 09:52:33
(UTC+00:00)

Altair - Pass Details

Date: 26 April 2024
Orbit: 1501 x 1682 km, 47.2° (Epoch: 17 May)

Event Time Altitude Azimuth Distance (km) Brightness Sun altitude
Rises 19:01:04 0° 256° (WSW) 4,926 11.1 -0.6°
Reaches altitude 10° 19:04:15 10° 255° (WSW) 3,929 10.6 -1.1°
Maximum altitude 19:14:19 79° 171° (S) 1,671 7.7 -2.6°
Drops below altitude 10° 19:24:05 10° 87° (E) 3,811 9.0 -4.0°
Sets 19:27:07 0° 87° (E) 4,772 9.5 -4.5°
